CALSPHERE 1 1 00900U 64063C 21017.58174920 .00000198 00000-0 20205-3 0 9995 2 00900 90.1562 31.9019 0028903 130.5058 350.8431 13.73471195799843 CALSPHERE 2 1 00902U 64063E 21017.59882994 -.00000009 00000-0 -27158-4 0 9993 2 00902 90.1666 34.6562 0017587 199.4357 289.0702 13.52690757589031 LCS 1 1 01361U 65034C 21017.62049264 -.00000003 00000-0 -15192-2 0 9998 2 01361 32.1356 190.0431 0008721 205.2568 154.7503 9.89298890 14144 TEMPSAT 1 1 01512U 65065E 21017.57639888 .00000006 00000-0 -73069-5 0 9993 2 01512 89.8824 223.6391 0071014 40.2756 12.3237 13.33434452696622 CALSPHERE 4(A) 1 01520U 65065H 21017.56287979 .00000074 00000-0 12694-3 0 9990 2 01520 90.0255 129.7352 0068290 277.8700 92.3759 13.35832141698780 OPS 5712 (P/L 160) 1 02826U 67053A 21017.52493290 .00000445 00000-0 13254-3 0 9995 2 02826 69.9282 57.8895 0007734 316.2608 43.7912 14.49339658777958 OPS 5712 (P/L 153) 1 02874U 67053H 21017.52990074 -.00000017 00000-0 26638-4 0 9997 2 02874 69.9742 30.1679 0010338 249.7390 110.2605 13.96361530730838 SURCAL 150B 1 2909U 67053J 21017.85288156 .00000648 00000-0 14240-3 0 9997 2 2909 69.9478 70.7672 0003283 322.2080 37.8829 14.62102212788716 RIGIDSPHERE 2 (LCS 4) 1 5398U 71067E 21017.83083459 .00000150 00000-0 46788-4 0 9990 2 5398 87.6278 165.2436 0061423 286.4169 73.0282 14.33951984590591